Location: Bremen
(53.0793°N, 8.8017°E)
Time: 18:07:25
(UTC+01:00)

Vanguard 1 Rocket - Pass Details

Date: 10 December 2021
Orbit: 651 x 4224 km, 34.3° (Epoch: 21 January)

Event Time Altitude Azimuth Distance (km) Brightness Sun altitude
Rises 02:28:02 0° 229° (SW) 4,145 - -51.0°
Reaches altitude 10° 02:30:48 10° 218° (SW) 3,529 - -50.7°
Maximum altitude 02:38:36 29° 162° (SSE) 3,225 - -49.7°
Exits shadow 02:41:42 27° 141° (SE) 3,699 10.4 -49.3°
Drops below altitude 10° 02:51:33 10° 111° (ESE) 5,972 11.8 -48.1°
Sets 02:58:09 0° 103° (ESE) 7,566 12.5 -47.2°
